TimeCDT,TemperatureF,Dew PointF,Humidity,Sea Level PressureIn,VisibilityMPH,Wind Direction,Wind SpeedMPH,Gust SpeedMPH,PrecipitationIn,Events,Conditions,WindDirDegrees,DateUTC
12:53 AM,61.0,57.0,87,30.13,10.0,Calm,Calm,-,N/A,,Clear,0,2013-10-24 05:53:00
1:53 AM,59.0,55.9,90,30.13,10.0,Calm,Calm,-,N/A,,Clear,0,2013-10-24 06:53:00
2:53 AM,57.9,55.0,90,30.13,10.0,North,3.5,-,N/A,,Clear,360,2013-10-24 07:53:00
3:53 AM,57.9,55.0,90,30.13,10.0,NNW,3.5,-,N/A,,Clear,340,2013-10-24 08:53:00
4:53 AM,55.9,54.0,93,30.13,10.0,North,4.6,-,N/A,,Clear,350,2013-10-24 09:53:00
5:53 AM,54.0,52.0,93,30.14,10.0,North,5.8,-,N/A,,Clear,10,2013-10-24 10:53:00
6:53 AM,55.0,52.0,89,30.16,10.0,North,3.5,-,N/A,,Clear,10,2013-10-24 11:53:00
7:53 AM,55.0,52.0,89,30.18,10.0,North,5.8,-,N/A,,Clear,360,2013-10-24 12:53:00
8:53 AM,62.1,55.9,80,30.20,10.0,North,4.6,-,N/A,,Clear,360,2013-10-24 13:53:00
9:53 AM,69.1,57.9,68,30.22,10.0,North,4.6,-,N/A,,Clear,360,2013-10-24 14:53:00
10:53 AM,75.9,57.9,54,30.22,10.0,North,5.8,-,N/A,,Clear,360,2013-10-24 15:53:00
11:53 AM,79.0,55.9,45,30.22,10.0,Variable,4.6,-,N/A,,Clear,0,2013-10-24 16:53:00
12:53 PM,80.1,54.0,40,30.21,10.0,East,4.6,-,N/A,,Clear,90,2013-10-24 17:53:00
1:53 PM,81.0,55.0,41,30.18,10.0,SE,8.1,-,N/A,,Clear,130,2013-10-24 18:53:00
2:53 PM,81.0,55.0,41,30.16,10.0,SSE,6.9,-,N/A,,Clear,160,2013-10-24 19:53:00
3:53 PM,80.1,57.0,45,30.16,10.0,SE,12.7,-,N/A,,Clear,140,2013-10-24 20:53:00
4:53 PM,79.0,57.0,47,30.16,10.0,SE,12.7,-,N/A,,Clear,140,2013-10-24 21:53:00
5:53 PM,77.0,57.9,52,30.15,10.0,SE,9.2,-,N/A,,Clear,130,2013-10-24 22:53:00
6:53 PM,71.1,60.1,68,30.16,10.0,SE,4.6,-,N/A,,Clear,130,2013-10-24 23:53:00
7:53 PM,68.0,60.1,76,30.17,10.0,ESE,4.6,-,N/A,,Clear,110,2013-10-25 00:53:00
8:53 PM,68.0,61.0,78,30.19,10.0,ESE,3.5,-,N/A,,Clear,110,2013-10-25 01:53:00
9:53 PM,66.0,60.1,81,30.21,10.0,Calm,Calm,-,N/A,,Clear,0,2013-10-25 02:53:00
10:53 PM,64.9,61.0,87,30.22,10.0,East,4.6,-,N/A,,Clear,80,2013-10-25 03:53:00
11:53 PM,61.0,59.0,93,30.21,8.0,Calm,Calm,-,N/A,,Clear,0,2013-10-25 04:53:00